Flag for Germany Weather past 2 weeks in Gorleben, Lower Saxony, Germany

Now
51 °F

Fog.


Feels Like: 50 °F
Forecast: 46 / 59 °F
Wind: 3 mph from Southwest

Location: Marnitz

Current Time: Oct 26, 2014 at 5:53:14 AM

Latest Report: Oct 26, 2014 at 5:00 AM


Visibility: 2 mi

Pressure: 30.20 "Hg

Humidity: 98%

Dew point: 50 °F

Location of GorlebenLocation

Historic Weather in Gorleben — Graph

°F

Gorleben temperature yesterday

Maximum temperature yesterday: 52 °F (at 3:00 PM)
Minimum temperature yesterday: 45 °F (at 12:00 AM)
Average temperature yesterday: 48 °F

Past Weeks' High & Low Weather Summary

 TemperatureHumidityPressure
High71 °F (Oct 19, 3:00 PM)100% (Oct 14, 9:00 AM)30.22 "Hg (Oct 14, 9:00 AM)
Low44 °F (Oct 24, 12:00 AM)65% (Oct 14, 5:00 PM)29.38 "Hg (Oct 21, 9:00 PM)
Average54 °F91%29.89 "Hg
* Reported Oct 11 5:00 AM — Oct 26 4:00 AM, Gorleben, Weather by CustomWeather, © 2014

Note: Actual official high and low records may vary slightly from our data, if they occured in-between our weather recording intervals... More about our weather records

Advertising

Gorleben weather history for previous 24 hours

 ConditionsComfort  
Time TempWeatherWind HumidityBarometerVisibility
4:00 AM
Oct 26
51 °FLow clouds.2 mph97%30.19 "Hg2 mi
3:00 AM51 °FDrizzle. Low clouds.2 mph97%30.19 "Hg1 mi
2:00 AM51 °FFog.2 mph98%30.19 "Hg2 mi
2:00 AM51 °FFog.1 mph97%30.18 "Hg2 mi
1:00 AM52 °FFog.2 mph97%30.18 "Hg2 mi
12:00 AM50 °FFog.3 mph99%30.16 "Hg2 mi
11:00 PM
Oct 25
51 °FFog.3 mph98%30.15 "Hg2 mi
10:00 PM51 °FLow clouds.3 mph99%30.14 "Hg1 mi
9:00 PM51 °FLow clouds.2 mph99%30.12 "Hg1 mi
8:00 PM51 °FLow clouds.2 mph99%30.13 "Hg1 mi
7:00 PM51 °FLow clouds.2 mph98%30.11 "Hg2 mi
6:00 PM50 °FDrizzle. Low clouds.2 mph97%30.10 "Hg1 mi
5:00 PM50 °FDrizzle. Low clouds.2 mph95%30.09 "Hg1 mi
4:00 PM51 °FOvercast.2 mph93%30.09 "Hg3 mi
3:00 PM52 °FOvercast.3 mph84%30.07 "Hg5 mi
2:00 PM51 °FOvercast.3 mph83%30.07 "Hg5 mi
1:00 PM51 °FOvercast.2 mph86%30.08 "Hg5 mi
12:00 PM49 °FLight rain. Low clouds.3 mph87%30.07 "Hg4 mi
11:00 AM47 °FLight rain. Overcast.3 mph93%30.08 "Hg3 mi
10:00 AM46 °FLight rain. Low clouds.3 mph93%30.08 "Hg3 mi
9:00 AM45 °FLow clouds.3 mph94%30.08 "Hg3 mi
8:00 AM45 °FLow clouds.5 mph95%30.07 "Hg3 mi
7:00 AM45 °FFog.3 mph95%30.07 "Hg2 mi
6:00 AM45 °FFog.5 mph95%30.08 "Hg2 mi
5:00 AM45 °FFog.5 mph94%30.08 "Hg3 mi
Weather by CustomWeather, © 2014

See weather overviewHow to use our weather pages